Temperature
15 15 16 16 16 17 19 21 22 22 22 22 21 21 21 20 19 17 16 16 15 16 16 16 16 16 16 15 16 16 16 16 16 16 15 16 15 15 15 15 15 15 15 15 15 15 15 15 15
15 15 16 17 17 17 19 21 21 21 21 21 21 20 20 19 17 16 15 15 15 15 16 16 16 15 15 15 15 15 16 16 16 15 15 15 15 15 15 15 15 15 15 15 15 15 15 15 15
15 15 16 17 17 18 20 21 20 20 20 20 20 19 19 17 16 15 15 15 15 15 15 15 15 15 15 15 15 15 15 15 15 15 15 15 15 15 15 15 15 15 15 15 15 15 15 15 15
14 15 16 17 18 19 20 20 19 19 20 20 19 18 17 16 15 15 15 15 15 15 15 15 15 15 15 15 15 15 15 15 15 15 15 15 15 15 15 15 15 15 15 15 15 15 15 15 15
14 16 16 16 18 19 20 20 20 19 19 19 19 17 16 15 15 15 15 15 15 14 15 15 15 15 15 15 15 15 15 15 15 15 15 15 15 15 15 15 15 15 15 14 14 14 14 14 14
15 16 16 16 18 19 19 19 19 19 19 19 18 17 15 14 15 14 14 14 14 14 14 14 14 14 14 14 15 14 14 15 14 14 14 14 15 15 15 15 15 14 14 14 14 14 14 14 14
15 15 16 17 17 18 19 19 18 18 17 17 17 16 14 14 14 14 14 14 14 14 14 14 14 14 14 14 14 14 14 14 14 14 14 14 14 14 14 14 14 14 14 14 14 14 14 14 14
14 15 16 17 17 17 18 17 17 16 16 16 16 15 14 13 13 13 13 13 13 13 13 14 14 14 14 14 14 14 14 14 14 14 14 14 14 14 14 14 14 14 14 14 14 14 14 14 14
14 14 15 16 17 16 16 16 16 15 15 15 14 14 13 13 13 13 13 13 13 13 13 13 13 13 13 13 13 13 13 14 14 13 13 13 13 13 13 13 13 13 13 13 13 13 13 13 13
14 13 15 16 16 15 15 15 15 15 14 14 14 13 13 12 12 12 12 12 13 13 13 13 13 13 13 13 13 13 13 13 13 13 13 13 13 13 13 13 13 13 13 13 13 13 13 13 13
14 13 15 15 15 15 14 14 14 14 14 14 13 12 12 12 12 12 12 12 12 12 12 12 12 12 13 13 13 13 13 13 13 13 13 13 13 13 13 13 13 13 13 13 13 13 13 13 13
14 14 14 14 13 14 14 14 13 13 13 13 13 12 12 11 11 11 11 11 11 11 12 12 12 12 12 12 12 12 12 12 12 12 12 12 12 12 12 12 12 12 12 12 12 12 12 12 12
13 13 13 13 13 13 13 13 12 12 12 12 12 11 11 11 11 11 11 11 11 11 11 11 12 12 12 12 12 12 12 12 12 12 12 12 12 12 12 12 12 12 12 12 12 12 12 12 12
13 13 12 12 12 12 12 12 12 12 12 11 11 11 11 10 10 10 10 10 10 10 11 11 11 11 12 12 12 12 12 12 12 12 11 11 11 11 11 11 11 11 11 11 11 11 11 11 11
12 11 12 12 13 12 12 11 12 12 11 11 11 11 10 10 10 10 10 10 10 10 10 11 11 11 11 11 11 11 11 11 11 11 11 11 11 11 11 11 11 11 11 11 11 11 11 11 11
12 11 11 12 13 12 11 10 12 12 11 11 11 10 10 10 9 9 9 9 9 9 10 10 10 10 10 10 10 11 11 11 11 11 11 11 11 11 11 11 11 11 11 11 11 11 10 11 11
11 11 12 12 12 12 11 10 11 11 11 11 11 10 10 9 9 9 9 8 9 9 9 10 10 10 10 10 10 10 10 10 10 10 10 10 11 11 10 10 10 10 10 10 10 10 10 10 10
11 11 12 11 12 11 11 10 10 11 11 10 10 10 9 9 8 8 8 8 8 8 8 9 9 9 9 10 10 10 10 10 10 10 10 10 10 10 10 10 10 10 10 10 10 10 9 9 9
11 11 11 11 11 11 10 10 10 10 10 10 10 9 9 8 8 8 8 7 7 8 8 8 8 8 9 9 9 9 9 9 9 9 9 9 9 9 10 10 9 9 9 9 9 9 9 9 9
11 10 10 10 11 10 10 10 10 10 9 9 9 9 8 8 8 7 7 7 7 7 7 7 8 8 8 8 8 8 8 8 8 9 9 9 9 9 9 9 9 9 9 9 9 9 8 8 8
10 10 10 9 9 10 10 9 10 10 10 9 9 8 8 8 7 7 6 6 6 6 6 7 7 7 7 7 7 7 8 8 8 8 8 8 8 8 8 8 8 8 8 8 8 8 8 8 7
9 10 10 9 8 8 10 8 9 9 9 9 8 8 7 7 7 6 6 5 5 6 6 6 6 6 7 7 7 7 7 7 7 7 7 8 8 8 8 8 8 8 8 8 8 7 7 7 7
9 10 9 9 8 8 9 8 8 9 8 8 7 7 7 6 6 5 5 5 5 5 5 5 6 6 6 6 6 6 6 6 7 7 7 7 7 7 7 7 7 7 7 7 7 7 7 6 6
9 9 9 8 8 7 8 8 8 9 8 8 7 7 6 6 5 5 5 5 5 5 5 5 5 6 6 6 6 6 6 6 6 6 6 6 6 6 6 6 6 6 6 6 6 6 6 6 6
8 7 6 7 7 7 9 8 8 8 8 8 7 6 6 5 5 4 4 4 4 4 4 4 5 5 5 5 5 5 5 5 5 6 5 6 6 6 6 6 6 6 6 6 6 6 6 5 5
7 7 6 6 7 8 9 8 7 7 7 7 7 6 5 5 4 4 3 3 3 4 4 4 4 4 4 4 5 5 5 5 5 5 5 5 5 5 5 5 5 5 5 5 5 5 5 5 5
7 7 8 6 6 6 7 8 7 7 7 6 6 5 5 4 4 3 3 3 3 3 3 3 3 3 3 4 4 4 4 4 4 4 4 4 4 5 5 5 5 5 5 5 4 4 4 4 4
7 7 6 6 6 7 8 8 7 6 5 5 5 5 4 4 3 3 3 2 2 2 2 2 2 2 3 3 3 3 3 3 3 4 3 4 4 4 4 4 4 4 4 4 4 4 4 4 4
6 6 6 6 6 6 6 6 7 6 5 5 5 5 4 3 3 2 2 2 2 2 2 2 2 2 2 2 3 3 3 3 3 3 3 3 3 3 3 3 3 3 3 3 3 3 3 3 3
6 6 6 5 5 6 5 5 6 5 5 5 4 4 3 3 2 2 1 1 1 1 1 1 1 1 2 2 2 2 2 2 2 2 3 3 3 3 3 3 3 3 3 3 3 3 3 3 3
Wind_Speed
14 13 7 3 3 5 9 7 5 3 2 4 6 5 5 5 4 5 3 4 6 8 9 8 9 10 10 10 10 10 10 9 10 10 9 9 10 10 10 10 10 11 11 11 11 11 11 11 12
11 9 4 3 4 6 7 6 4 1 2 3 4 4 3 3 5 6 3 4 5 7 9 8 9 10 10 10 9 9 10 9 9 9 9 9 10 9 9 10 10 10 11 11 11 11 11 11 11
10 7 4 4 5 6 4 1 4 5 4 1 1 2 2 3 4 4 3 3 4 6 8 9 9 9 10 9 9 8 8 9 8 9 9 9 9 9 9 9 9 10 10 10 10 11 11 10 10
5 3 4 6 11 7 5 3 4 3 2 2 2 1 3 5 4 4 3 2 4 5 7 9 9 8 9 9 8 8 8 8 8 8 8 9 9 9 9 9 9 9 9 9 9 10 10 10 9
3 4 5 7 10 6 4 3 3 1 1 0 1 0 1 4 6 5 3 3 4 5 7 8 8 8 8 9 8 8 7 7 8 7 8 9 9 9 9 9 9 9 9 9 9 9 9 9 9
3 4 5 8 7 5 2 1 1 2 2 2 1 1 2 4 6 5 4 4 4 4 6 7 7 7 8 8 8 8 7 7 7 7 7 8 9 9 9 9 8 8 8 9 8 8 9 9 8
4 4 6 8 6 5 2 3 2 2 3 2 3 1 3 4 5 4 5 4 4 5 5 5 5 5 6 7 7 7 7 7 6 7 7 7 8 8 8 8 8 8 7 8 8 8 8 8 7
4 4 6 6 5 4 2 3 4 4 3 3 3 1 1 2 4 3 4 3 3 4 4 3 3 4 4 6 7 7 7 7 6 7 7 7 7 7 8 8 7 7 7 8 8 8 7 7 6
3 4 5 4 4 2 3 3 3 3 2 2 2 3 3 3 2 2 2 2 2 4 3 3 2 3 3 5 6 7 6 7 7 6 7 6 5 6 6 7 7 7 7 8 7 7 6 6 5
3 4 4 4 4 3 2 3 3 2 2 1 1 3 4 3 2 1 1 1 2 3 3 2 1 2 3 4 5 5 5 6 5 5 6 5 4 5 5 7 7 6 6 7 7 6 5 5 4
3 4 4 4 5 3 3 3 4 4 4 2 1 2 2 1 1 1 2 2 2 2 3 2 1 1 2 2 3 2 3 4 4 5 4 4 4 4 5 5 5 5 6 5 5 5 3 3 3
4 4 4 3 4 4 4 3 5 5 4 2 1 2 2 1 0 1 1 2 2 2 2 2 2 2 2 2 2 2 2 2 2 4 4 3 2 2 3 3 3 4 3 3 3 2 2 2 2
6 4 4 3 3 4 4 5 5 6 3 1 1 1 1 0 1 1 2 2 2 2 3 2 2 2 1 1 1 2 1 1 3 3 3 3 2 2 2 2 3 3 3 3 1 1 1 1 1
3 3 4 4 4 4 5 6 5 6 2 1 1 2 1 1 0 1 2 2 2 3 3 1 2 2 1 1 1 2 2 1 2 3 3 3 3 2 2 3 3 2 3 2 2 1 1 1 1
2 4 5 5 6 3 2 6 6 4 3 3 2 2 1 1 0 0 0 1 2 2 2 2 1 1 1 0 0 1 1 2 2 3 4 4 3 3 2 2 3 2 2 2 2 1 1 1 0
5 5 4 4 4 3 3 6 3 4 2 2 2 2 1 1 1 0 0 1 2 2 2 2 1 0 0 0 0 0 1 1 1 2 4 4 4 3 2 3 3 2 2 2 2 1 1 0 0
5 5 5 3 3 2 5 5 2 3 3 3 2 2 2 1 0 1 1 2 1 2 2 2 1 0 1 0 1 1 1 1 0 1 3 4 4 4 3 3 3 3 2 2 2 1 1 1 0
4 5 5 4 3 3 6 6 3 4 4 3 2 1 1 1 2 2 1 1 2 1 1 2 1 1 0 0 1 1 1 0 0 1 1 3 3 4 3 3 3 3 3 2 2 2 1 1 0
6 7 7 5 2 3 7 7 6 4 3 2 2 1 0 1 2 2 2 2 2 2 2 2 1 0 0 0 1 1 1 1 1 1 2 2 3 4 3 3 3 3 4 3 3 2 2 1 1
7 7 6 3 2 4 7 8 6 5 4 3 1 0 1 1 2 2 3 2 2 1 2 2 1 1 1 0 1 1 1 1 1 0 1 2 2 3 3 3 3 4 3 4 3 3 2 1 1
6 5 4 4 6 6 5 5 4 4 3 3 1 1 1 1 2 2 3 2 2 2 2 2 2 1 1 1 1 0 1 0 0 1 1 1 2 3 3 3 2 4 4 4 4 4 3 3 2
4 3 4 4 3 3 3 4 3 5 4 3 2 2 1 2 3 3 3 3 3 3 3 3 3 2 1 1 1 1 2 2 2 2 2 1 2 3 4 4 3 3 3 4 4 3 3 3 2
2 4 4 5 5 4 5 4 3 5 3 2 2 2 3 4 4 5 5 5 5 5 4 4 3 3 1 0 0 1 1 2 1 1 2 2 1 2 3 3 3 3 3 4 3 3 3 2 3
3 3 4 4 2 4 5 5 3 1 2 3 3 3 3 4 4 5 5 5 5 5 4 4 3 3 2 1 1 0 1 2 1 1 2 1 1 2 2 3 3 3 4 4 4 4 4 3 3
2 1 1 1 2 4 3 3 2 2 3 4 4 3 3 3 4 4 5 5 5 5 5 5 5 4 2 1 1 1 1 1 2 2 2 2 2 2 2 2 3 3 4 4 4 4 4 4 3
2 1 1 2 3 2 1 3 1 3 5 6 5 4 4 5 5 5 5 4 4 4 5 5 5 4 3 2 1 1 1 1 1 2 2 2 2 2 2 2 3 3 3 3 4 3 4 3 4
2 2 1 1 3 2 3 2 2 3 4 4 5 5 4 4 5 5 5 4 4 4 4 5 5 5 4 3 2 2 1 1 1 2 1 1 2 2 2 2 3 3 4 4 4 4 4 4 4
2 1 0 1 2 3 3 2 1 1 1 2 3 3 4 4 5 5 5 5 5 5 5 6 5 5 5 4 3 3 2 2 1 1 1 2 2 2 3 3 3 3 4 4 4 3 3 3 3
2 2 2 2 2 2 3 1 3 2 2 2 2 3 3 4 4 4 4 5 5 5 5 4 5 5 5 4 4 3 3 2 1 1 2 2 2 2 3 2 3 3 4 4 4 4 4 4 4
1 1 2 2 3 3 2 2 3 4 4 4 4 3 3 4 4 4 4 5 5 5 5 4 4 4 4 4 4 4 3 2 2 2 2 2 2 2 2 2 2 3 3 4 4 4 4 4 5
Wind_Direction
304 286 264 255 238 231 240 239 245 268 323 19 20 12 13 4 22 97 135 72 86 107 113 115 113 116 114 111 109 111 108 112 113 114 112 110 108 108 106 102 101 99 103 103 101 98 98 99 98
296 286 265 239 238 238 239 230 229 326 50 34 23 17 4 47 64 92 91 67 86 106 116 116 110 117 115 111 109 112 114 110 115 115 116 114 112 109 106 103 103 100 102 103 103 100 100 99 100
279 271 254 234 232 242 266 353 63 61 60 54 18 14 13 41 55 72 66 67 87 102 111 117 115 121 121 117 114 114 120 116 114 118 117 117 115 110 108 105 104 103 105 104 103 103 104 102 101
272 240 243 247 248 253 281 3 56 30 22 49 55 15 81 48 42 60 55 75 97 100 106 120 122 124 126 124 122 120 125 125 118 120 120 120 119 116 110 105 105 104 109 108 105 106 107 106 104
246 243 234 240 247 266 298 356 40 332 297 67 106 17 74 53 59 64 67 73 87 100 106 126 131 129 129 126 128 127 127 129 127 120 127 126 124 119 113 108 105 103 108 111 109 106 108 108 106
254 242 239 240 243 252 274 332 300 285 305 320 13 344 87 70 58 43 49 56 76 82 100 127 140 135 138 134 130 129 129 127 129 125 123 129 125 123 118 112 109 105 109 111 109 108 106 107 106
267 259 254 261 266 270 306 3 349 335 306 320 351 3 110 80 60 44 41 35 55 72 84 109 132 141 146 142 134 132 126 121 125 127 120 126 126 127 125 118 114 109 111 114 110 108 108 106 107
295 279 257 257 260 272 354 3 16 358 325 1 2 20 111 82 47 44 42 24 51 73 76 82 111 120 133 139 137 135 131 128 129 131 125 123 130 131 130 123 119 113 114 115 115 115 111 109 110
282 256 256 276 284 315 31 356 11 6 357 356 6 6 74 94 77 62 57 31 45 66 73 75 83 104 123 142 143 137 140 139 136 136 135 128 131 130 132 127 122 118 121 119 121 122 121 118 122
232 246 262 325 344 351 357 335 328 283 268 284 14 55 77 85 84 58 54 48 43 43 48 65 79 108 121 130 131 136 142 142 141 141 148 143 143 140 136 134 131 126 127 126 125 129 128 119 128
233 251 291 323 348 345 315 302 299 276 268 274 281 79 84 59 52 25 36 48 39 47 26 40 53 113 121 112 123 121 134 143 149 145 147 149 133 121 118 123 127 128 126 121 122 123 130 125 125
246 266 289 316 333 315 294 288 291 286 293 343 52 91 89 100 3 1 27 43 22 15 11 39 52 69 98 107 120 116 118 140 142 144 148 129 112 111 116 125 131 132 126 114 120 137 130 124 135
244 266 291 298 300 290 282 261 264 266 277 358 77 85 118 19 20 34 41 40 28 7 354 25 64 62 68 106 132 133 113 141 137 132 137 112 111 136 136 143 137 133 128 126 135 136 130 135 137
270 286 278 276 268 263 261 261 247 246 187 162 192 208 176 162 308 20 37 19 15 1 351 354 70 41 36 109 141 142 144 146 147 141 142 128 116 135 146 138 143 135 134 142 155 153 143 145 131
267 260 256 230 231 221 258 269 231 202 174 190 212 212 184 194 211 67 37 23 27 356 351 346 139 82 37 76 139 144 152 156 161 153 150 147 138 140 158 142 142 138 131 141 147 113 94 129 125
225 233 244 216 203 175 198 255 191 143 156 196 212 211 197 234 218 150 59 60 35 4 353 348 348 121 108 96 108 159 172 173 167 151 148 152 150 143 153 156 150 144 134 130 139 129 141 170 238
217 241 250 239 205 200 224 252 214 183 207 224 221 217 215 237 241 61 58 61 48 13 360 359 339 294 149 145 133 145 137 129 122 130 140 154 160 155 145 160 152 144 142 141 141 127 153 149 357
269 271 265 249 224 258 254 255 243 210 216 230 230 241 274 326 1 35 70 66 53 30 2 346 342 253 211 175 114 101 87 87 120 137 142 162 167 166 156 161 158 153 151 154 155 159 132 145 185
294 286 284 287 270 269 254 258 248 232 222 246 263 268 316 341 9 33 59 83 58 25 6 344 359 266 184 150 154 144 181 202 168 156 175 176 175 171 163 165 165 163 165 168 160 153 150 166 154
279 282 292 318 339 276 266 264 247 207 198 199 206 328 349 350 19 55 51 63 57 18 348 344 334 271 197 209 187 182 177 228 201 116 180 177 161 162 171 168 181 174 169 169 167 158 171 194 181
274 269 297 313 317 260 257 267 204 171 157 149 139 73 19 33 44 46 39 46 40 19 347 345 329 299 232 219 173 171 141 236 252 201 185 178 191 181 173 175 184 179 176 182 182 178 181 192 223
278 314 319 308 305 273 235 272 213 170 170 155 120 77 53 52 59 52 36 29 29 16 7 2 342 333 274 213 189 202 214 211 217 199 198 209 208 182 181 179 189 189 184 186 194 190 200 186 208
304 317 290 270 268 286 241 241 258 159 171 157 120 84 61 60 58 55 47 36 31 22 18 6 358 360 24 52 222 210 253 247 215 176 187 205 209 183 174 181 181 194 193 196 200 201 207 208 211
307 297 269 240 253 265 226 204 265 183 174 146 122 87 69 60 57 52 45 38 32 24 18 5 359 7 36 47 31 236 235 262 243 195 199 204 209 206 192 186 190 201 198 202 205 202 210 216 222
323 28 3 290 224 246 180 190 239 50 54 108 120 94 66 63 55 42 35 29 28 19 8 7 9 13 34 53 30 278 255 260 255 219 205 209 212 220 220 207 209 214 213 208 201 200 207 206 214
249 241 182 244 265 299 270 220 158 93 60 70 83 83 62 47 41 31 26 22 22 19 9 9 11 9 9 20 11 328 290 272 281 270 227 227 215 222 218 232 235 231 219 217 207 209 213 209 212
229 231 300 280 278 263 237 196 108 92 65 72 75 68 52 35 28 22 19 19 19 22 17 15 15 13 4 5 5 359 342 333 317 309 279 256 239 229 215 233 240 240 227 218 213 215 218 217 216
286 311 136 208 258 266 254 223 210 142 61 63 61 54 44 35 24 19 16 15 16 22 22 24 25 19 9 8 2 352 351 347 326 308 303 273 254 245 235 236 238 238 235 221 214 219 219 223 230
187 201 226 242 254 250 273 285 28 75 82 78 58 52 50 41 25 16 12 15 15 21 24 23 23 22 13 7 1 352 341 327 317 295 290 284 276 258 242 239 251 248 242 222 213 216 215 222 233
307 243 188 204 258 244 258 270 45 60 61 57 45 40 42 46 33 23 15 13 14 17 14 12 15 18 9 2 357 350 340 335 326 309 301 291 278 268 255 241 256 251 249 231 215 222 223 223 228
Height
1483 1484 1487 1489 1490 1490 1484 1471 1465 1466 1467 1469 1470 1472 1474 1479 1482 1491 1491 1489 1489 1489 1490 1492 1494 1496 1498 1499 1500 1502 1503 1505 1506 1508 1509 1510 1511 1513 1514 1515 1516 1517 1518 1519 1520 1520 1521 1522 1522
1483 1485 1488 1488 1489 1489 1478 1467 1467 1467 1470 1471 1472 1474 1477 1480 1484 1486 1488 1488 1489 1490 1490 1492 1494 1496 1497 1499 1500 1502 1503 1505 1506 1508 1509 1510 1511 1513 1514 1515 1516 1517 1518 1519 1520 1521 1521 1522 1523
1483 1485 1488 1485 1483 1481 1473 1465 1466 1468 1470 1473 1475 1477 1480 1484 1485 1486 1487 1488 1489 1490 1491 1492 1493 1495 1497 1499 1500 1502 1503 1505 1506 1508 1509 1510 1512 1513 1514 1515 1516 1517 1519 1520 1521 1521 1522 1523 1523
1485 1487 1486 1484 1479 1471 1468 1467 1468 1470 1472 1474 1476 1479 1481 1485 1486 1486 1487 1488 1489 1490 1491 1492 1493 1495 1496 1498 1500 1501 1503 1505 1506 1508 1509 1510 1512 1513 1514 1515 1516 1517 1519 1520 1521 1522 1522 1523 1524
1484 1485 1484 1482 1475 1470 1467 1468 1470 1472 1473 1475 1477 1480 1483 1485 1485 1486 1487 1488 1489 1490 1490 1492 1493 1494 1496 1497 1499 1501 1502 1504 1506 1507 1509 1510 1511 1513 1514 1515 1516 1517 1518 1519 1520 1522 1522 1523 1524
1485 1481 1483 1480 1473 1469 1468 1469 1470 1472 1474 1476 1478 1480 1484 1485 1485 1485 1487 1488 1488 1489 1490 1491 1493 1494 1495 1497 1498 1500 1501 1503 1505 1507 1508 1510 1511 1512 1514 1515 1516 1517 1518 1519 1520 1521 1522 1523 1524
1484 1481 1479 1475 1473 1471 1470 1471 1472 1473 1475 1477 1478 1480 1483 1484 1484 1485 1485 1487 1488 1488 1489 1490 1492 1493 1494 1496 1497 1499 1500 1502 1504 1506 1507 1509 1510 1511 1513 1514 1515 1516 1517 1518 1519 1521 1522 1523 1523
1482 1481 1476 1473 1473 1472 1472 1473 1474 1476 1476 1478 1479 1481 1483 1484 1484 1484 1484 1485 1487 1487 1487 1489 1490 1491 1493 1494 1496 1498 1499 1501 1503 1505 1506 1507 1509 1510 1511 1513 1514 1515 1516 1518 1519 1520 1521 1522 1523
1482 1483 1479 1473 1472 1472 1473 1475 1476 1477 1477 1478 1480 1481 1482 1483 1483 1483 1483 1484 1485 1486 1486 1487 1489 1490 1491 1493 1495 1496 1498 1500 1501 1503 1505 1506 1507 1509 1510 1511 1513 1514 1515 1517 1518 1519 1520 1521 1522
1481 1482 1476 1473 1473 1473 1475 1476 1478 1478 1478 1479 1480 1481 1481 1482 1482 1482 1483 1483 1483 1484 1485 1486 1487 1488 1489 1491 1493 1495 1497 1498 1500 1501 1503 1505 1506 1507 1508 1510 1511 1513 1514 1515 1517 1518 1519 1520 1521
1478 1477 1475 1474 1474 1475 1476 1477 1478 1478 1478 1479 1480 1481 1481 1481 1481 1482 1482 1482 1482 1483 1484 1485 1486 1487 1488 1489 1491 1493 1495 1496 1498 1500 1502 1503 1505 1506 1507 1508 1510 1511 1513 1514 1515 1516 1517 1518 1519
1476 1475 1475 1475 1475 1476 1476 1477 1479 1478 1478 1478 1479 1479 1480 1480 1480 1481 1481 1481 1481 1482 1482 1483 1484 1485 1486 1487 1489 1491 1493 1495 1496 1498 1500 1501 1503 1504 1505 1506 1508 1509 1511 1512 1514 1515 1516 1517 1518
1475 1475 1475 1475 1475 1476 1476 1477 1478 1477 1477 1477 1478 1478 1479 1479 1479 1479 1480 1479 1480 1480 1479 1480 1481 1482 1484 1485 1487 1489 1491 1493 1494 1496 1498 1499 1501 1502 1503 1505 1506 1507 1508 1510 1512 1513 1514 1515 1516
1474 1475 1475 1475 1475 1475 1476 1475 1476 1474 1475 1476 1476 1477 1478 1478 1478 1478 1478 1478 1478 1477 1478 1479 1479 1480 1482 1483 1485 1487 1489 1491 1492 1494 1495 1497 1499 1500 1501 1503 1504 1505 1507 1508 1510 1511 1512 1513 1514
1475 1475 1474 1472 1472 1473 1475 1474 1472 1472 1473 1474 1475 1476 1477 1477 1477 1476 1476 1476 1476 1476 1476 1476 1477 1478 1479 1481 1482 1484 1486 1488 1490 1491 1493 1495 1496 1498 1499 1501 1502 1503 1505 1506 1508 1509 1510 1511 1512
1474 1474 1474 1469 1469 1471 1476 1474 1469 1470 1472 1473 1474 1474 1475 1475 1475 1475 1474 1474 1474 1474 1474 1474 1475 1476 1477 1478 1479 1481 1483 1485 1487 1489 1490 1492 1494 1495 1497 1498 1499 1501 1502 1504 1505 1506 1508 1508 1509
1473 1474 1470 1469 1468 1469 1472 1471 1469 1469 1471 1471 1472 1473 1473 1473 1473 1473 1473 1472 1472 1472 1472 1472 1473 1474 1475 1476 1477 1479 1480 1482 1484 1486 1487 1489 1491 1492 1494 1495 1497 1498 1499 1501 1502 1503 1505 1505 1506
1473 1470 1467 1468 1467 1468 1469 1469 1468 1468 1469 1470 1470 1471 1471 1471 1471 1471 1470 1470 1470 1470 1470 1470 1470 1471 1472 1473 1474 1475 1477 1479 1481 1483 1484 1486 1488 1489 1491 1492 1494 1495 1496 1497 1499 1500 1502 1502 1503
1470 1470 1468 1467 1466 1468 1468 1467 1466 1466 1467 1467 1468 1468 1469 1469 1469 1468 1468 1468 1468 1468 1468 1468 1468 1468 1468 1469 1470 1472 1474 1476 1478 1480 1481 1483 1484 1486 1487 1489 1491 1492 1493 1494 1495 1496 1498 1499 1500
1469 1470 1469 1467 1466 1468 1466 1465 1462 1463 1464 1465 1466 1467 1468 1468 1467 1466 1466 1465 1465 1466 1466 1465 1465 1465 1466 1467 1468 1470 1471 1473 1475 1476 1478 1479 1481 1483 1484 1485 1487 1488 1489 1491 1492 1493 1494 1495 1497
1468 1470 1470 1471 1469 1465 1466 1464 1460 1460 1462 1464 1465 1466 1467 1467 1466 1465 1464 1464 1464 1463 1463 1463 1463 1463 1464 1465 1465 1467 1469 1470 1471 1473 1474 1476 1478 1479 1480 1482 1484 1485 1486 1487 1488 1489 1491 1492 1493
1470 1467 1468 1470 1473 1471 1466 1471 1460 1459 1461 1462 1464 1465 1465 1465 1465 1464 1464 1463 1463 1462 1462 1462 1461 1461 1461 1462 1463 1464 1465 1466 1468 1470 1471 1473 1475 1476 1477 1478 1480 1481 1482 1483 1485 1486 1487 1488 1489
1469 1467 1468 1469 1471 1472 1466 1470 1462 1457 1460 1461 1462 1464 1464 1464 1464 1464 1463 1463 1462 1461 1461 1460 1460 1459 1459 1460 1461 1462 1464 1464 1465 1467 1468 1469 1471 1472 1473 1475 1476 1477 1479 1480 1481 1482 1484 1485 1486
1469 1468 1467 1468 1472 1477 1464 1467 1463 1458 1458 1459 1461 1463 1464 1464 1464 1463 1462 1462 1461 1460 1459 1458 1457 1457 1457 1458 1459 1460 1461 1462 1462 1463 1465 1466 1467 1469 1470 1471 1472 1474 1475 1476 1477 1479 1480 1481 1482
1471 1475 1480 1478 1478 1472 1457 1462 1465 1459 1457 1458 1461 1463 1464 1464 1463 1463 1461 1460 1459 1458 1457 1456 1455 1455 1456 1457 1457 1458 1458 1459 1460 1461 1462 1463 1464 1465 1467 1468 1470 1470 1472 1473 1474 1475 1476 1477 1478
1472 1474 1482 1482 1475 1467 1460 1463 1463 1460 1459 1459 1461 1463 1464 1463 1463 1462 1461 1460 1458 1457 1456 1455 1454 1454 1454 1455 1456 1456 1456 1457 1458 1458 1459 1460 1461 1462 1464 1465 1466 1467 1468 1470 1471 1471 1472 1473 1474
1472 1474 1472 1477 1475 1476 1466 1459 1462 1460 1460 1461 1462 1463 1463 1463 1463 1462 1461 1459 1458 1456 1455 1454 1454 1453 1454 1453 1454 1454 1454 1454 1455 1455 1456 1457 1458 1459 1460 1461 1463 1464 1465 1466 1467 1467 1468 1469 1469
1473 1472 1477 1480 1480 1474 1461 1458 1464 1463 1463 1462 1463 1463 1463 1463 1463 1461 1460 1459 1457 1456 1454 1454 1453 1453 1453 1452 1452 1452 1452 1452 1452 1453 1452 1453 1454 1455 1456 1458 1459 1459 1461 1462 1462 1463 1464 1464 1465
1474 1475 1475 1476 1475 1475 1471 1469 1461 1462 1462 1462 1463 1463 1463 1463 1462 1461 1460 1458 1457 1455 1454 1453 1452 1451 1451 1451 1450 1450 1450 1450 1450 1450 1450 1450 1451 1452 1453 1454 1455 1456 1456 1457 1458 1458 1459 1460 1460
1472 1471 1474 1480 1478 1473 1475 1475 1462 1462 1462 1463 1463 1464 1463 1463 1462 1460 1459 1457 1456 1455 1453 1452 1451 1450 1449 1449 1448 1448 1447 1447 1447 1447 1447 1447 1447 1448 1449 1450 1451 1452 1452 1453 1453 1454 1454 1455 1455